Retour au catalogue

COSMOS 397 DEB

ActifLEO
NORAD 5011·DEBRIS·🇷🇺 Russia

Lancé Feb 25, 1971 depuis Baikonur Cosmodrome

Loading…

Prochains Passages (prochaines 24 heures)

TLE

FraisSource: Space-Track

Époque: Sep 14, 2026, 02:06 UTC

1 05011U 71015E   26257.08782524  .00007370  00000-0  12083-2 0  9992
2 05011  65.6670 279.5712 0390745 326.3482  31.3333 14.31287797733590

Suivez COSMOS 397 DEB en temps réel avec AllMySat

Download on the App Store